www.pogodaiklimat.ru

Погода и климат >> Архив погоды >> Австрия >> Санкт-Андре


ПОГОДА в Санкт-Андре

  • Прогноз погоды в Санкт-Андре
  • Монитор погоды в Санкт-Андре

АРХИВ ПОГОДЫ в Санкт-Андре

Время (UTC), дата Ветер
(напр.,м/с)
 
Видим.   Явления Облачность Т
(С)
Тd
(С)
f
(%)
Тe
(С)
Тes
(С)
Комфортность P
(гПа)
Po
(гПа)
Тmin
(С)
Tmax
(С)
R
(мм)
R24
(мм)
S
(см)
01 9.06 С 1 н/о н/о +14.0 +12.0 88 +14 +14 1025.3 977.6
02 9.06 штиль 0 н/о н/о +13.3 +11.8 91 +13 +13 1025.5 977.7
03 9.06 штиль 0 н/о н/о +12.7 +11.4 92 +12 +12 1025.6 977.7
04 9.06 штиль 0 н/о н/о +12.4 +11.2 92 +12 +12 1025.6 977.7
05 9.06 штиль 0 н/о н/о +13.4 +11.6 89 +13 +13 1025.6 977.8
06 9.06 ЮВ 1 н/о н/о +16.2 +12.9 81 +17 +17 1025.0 977.7 +12.2 +24.9
07 9.06 В 1 н/о н/о +19.9 +12.4 62 +23 +23 комфорт 1024.1 977.4
08 9.06 В 1 н/о н/о +22.8 +11.8 50 +25 +25 комфорт 1022.9 976.7
09 9.06 ЮВ 1 н/о н/о +24.6 +11.7 44 +26 +26 жарко 1022.2 976.3
10 9.06 Ю 2 н/о н/о +25.5 +12.6 45 +27 +27 жарко 1021.4 975.7
11 9.06 ЮВ 2 н/о н/о +26.8 +11.5 38 +28 +28 жарко 1020.6 975.1
12 9.06 В 2 н/о н/о +28.8 +13.9 40 +31 +31 жарко 1019.4 974.3
13 9.06 Ю 1 н/о н/о +27.7 +12.6 39 +29 +29 жарко 1018.7 973.5
14 9.06 Ю 2 н/о н/о +28.4 +12.5 37 +30 +30 жарко 1018.2 973.1
15 9.06 ЮВ 1 н/о н/о +28.6 +11.9 36 +30 +30 жарко 1017.7 972.6
16 9.06 Ю 2 н/о н/о +27.9 +12.3 38 +29 +29 жарко 1017.3 972.1
17 9.06 Ю 2 н/о н/о +26.7 +14.0 46 +29 +29 жарко 1017.2 971.9
18 9.06 Ю 2 н/о н/о +25.1 +14.6 52 +28 +28 жарко 1017.3 971.8 +15.7 +29.4
19 9.06 штиль 0 н/о н/о +23.1 +14.5 58 +27 +27 душно 1018.0 972.1
20 9.06 штиль 0 н/о н/о +20.4 +15.2 72 +23 +23 комфорт 1018.9 972.6
21 9.06 штиль 0 н/о н/о +19.0 +15.0 78 +20 +20 1019.0 972.5
22 9.06 штиль 0 н/о н/о +17.8 +14.9 83 +18 +18 1019.8 973.0
23 9.06 штиль 0 н/о н/о +16.9 +14.6 86 +17 +17 1019.4 972.5
00 10.06 В 1 н/о н/о +16.1 +14.2 88 +17 +17 1019.4 972.4
01 10.06 З 1 н/о н/о +15.4 +13.9 91 +16 +16 1019.5 972.4
02 10.06 Ю 1 н/о н/о +15.1 +13.8 92 +16 +16 1018.6 971.5
03 10.06 штиль 0 н/о н/о +14.9 +13.8 93 +15 +15 1018.4 971.2
04 10.06 ЮЗ 1 н/о н/о +14.9 +13.8 93 +15 +15 1018.7 971.5
05 10.06 ЮВ 1 н/о н/о +16.6 +14.9 90 +17 +17 1018.7 971.8
06 10.06 Ю 1 н/о н/о +18.7 +14.3 76 +21 +21 комфорт 1017.6 971.1 +14.6 +25.4
07 10.06 СЗ 1 н/о н/о +21.1 +14.9 68 +24 +24 комфорт 1016.8 970.7
08 10.06 штиль 0 н/о н/о +24.6 +15.9 58 +28 +28 душно 1015.7 970.2
09 10.06 Ю 1 н/о н/о +25.0 +15.7 56 +28 +28 жарко 1015.3 969.9
10 10.06 Ю 2 н/о н/о +26.7 +16.4 53 +30 +30 душно 1014.3 969.2
11 10.06 Ю 1 н/о н/о +28.7 +14.8 43 +31 +31 жарко 1013.5 968.7
12 10.06 Ю 2 н/о н/о +29.6 +17.1 47 +33 +33 душно 1012.5 967.9
13 10.06 ЮВ 2 н/о н/о +30.5 +16.5 43 +34 +34 очень
душно
1011.1 966.7
14 10.06 Ю 1 н/о н/о +30.8 +14.8 38 +33 +33 душно 1010.2 965.8
15 10.06 Ю 2 н/о н/о +30.9 +17.0 43 +34 +34 душно 1009.5 965.2
16 10.06 Ю 3 н/о н/о +29.6 +16.6 46 +33 +33 душно 1009.3 964.8
17 10.06 Ю 3 н/о н/о +28.2 +16.3 48 +31 +31 душно 1009.4 964.7
18 10.06 Ю 3 н/о н/о +27.0 +16.8 54 +31 +31 душно 1010.2 965.3 +18.1 +31.6
19 10.06 ЮЗ 1 н/о н/о +25.2 +17.1 61 +29 +29 душно 1010.3 965.1
20 10.06 ЮЗ 1 н/о н/о +24.9 +16.2 58 +28 +28 жарко 1011.1 965.8
21 10.06 СВ 2 н/о н/о +22.0 +16.8 72 +26 +26 душно 1012.1 966.4
22 10.06 СВ 1 н/о н/о +21.0 +17.0 78 +26 +26 душно 1012.5 966.6
23 10.06 С 1 н/о н/о +20.4 +16.8 80 +25 +25 комфорт 1012.3 966.3
00 11.06 З 1 н/о н/о +19.1 +16.2 83 +22 +22 комфорт 1012.0 965.8
01 11.06 СВ 1 н/о н/о +18.8 +15.6 82 +21 +21 комфорт 1011.4 965.2
02 11.06 СЗ 1 н/о н/о +17.8 +15.6 87 +19 +19 1011.6 965.2
03 11.06 З 1 н/о н/о +17.6 +15.5 87 +19 +19 1012.1 965.7
04 11.06 штиль 0 н/о н/о +17.3 +15.1 87 +17 +17 1011.7 965.2
05 11.06 штиль 0 н/о н/о +18.7 +16.2 85 +20 +20 1011.0 964.8
06 11.06 ЮВ 1 н/о н/о +21.0 +16.7 76 +26 +26 душно 1010.9 965.1 +17.1 +27.1
07 11.06 Ю 1 н/о н/о +23.2 +16.6 66 +28 +28 душно 1011.1 965.6
08 11.06 В 1 н/о н/о +26.2 +16.9 57 +30 +30 душно 1010.8 965.8
09 11.06 ЮВ 1 н/о н/о +27.6 +17.2 53 +32 +32 очень
душно
1010.3 965.5
10 11.06 Ю 1 н/о н/о +28.7 +16.5 48 +32 +32 душно 1009.4 964.8
11 11.06 Ю 3 н/о н/о +29.9 +17.8 48 +34 +34 очень
душно
1009.1 964.7
12 11.06 Ю 2 н/о н/о +30.6 +17.1 44 +34 +34 очень
душно
1008.8 964.5
13 11.06 Ю 3 н/о н/о +29.7 +14.6 40 +32 +32 душно 1008.8 964.3
14 11.06 Ю 3 н/о н/о +28.7 +14.4 42 +31 +31 жарко 1008.6 964.0
15 11.06 ЮВ 3 н/о н/о +27.9 +15.7 47 +31 +31 душно 1008.3 963.6
16 11.06 С 2 н/о н/о +26.2 +15.9 53 +29 +29 жарко 1009.0 964.0 0.0
17 11.06 С 1 н/о н/о +24.8 +16.6 60 +28 +28 жарко 1010.4 965.2
18 11.06 С 3 н/о в посл. час осадки н/о +22.6 +12.3 52 +25 +25 комфорт 1012.5 966.8 +20.5 +31.1 0.0
19 11.06 С 2 н/о в посл. час осадки н/о +20.5 +13.3 63 +23 +23 комфорт 1012.5 966.5 0.0
20 11.06 СВ 1 н/о н/о +19.8 +13.9 69 +23 +23 комфорт 1013.7 967.5
21 11.06 штиль 0 н/о {осадки} н/о +19.2 +14.3 73 +20 +20 1013.2 967.0 0.0
22 11.06 Ю 1 н/о н/о +18.1 +14.6 80 +19 +19 1013.9 967.5
23 11.06 СВ 1 н/о н/о +17.4 +14.5 83 +18 +18 1013.8 967.3
00 12.06 СВ 1 н/о {осадки} н/о +16.9 +14.0 83 +18 +18 1013.0 966.4 0.0
01 12.06 штиль 0 н/о н/о +15.5 +13.8 90 +15 +15 1013.1 966.3
02 12.06 ЮВ 1 н/о н/о +15.2 +13.7 91 +16 +16 1013.5 966.6
03 12.06 СВ 2 н/о н/о +14.9 +13.0 88 +15 +15 1013.4 966.5
04 12.06 С 1 н/о н/о +14.5 +12.8 90 +15 +15 1013.2 966.2
05 12.06 Ю 1 н/о н/о +15.9 +13.8 87 +17 +17 1012.6 965.9
06 12.06 Ю 1 н/о н/о +18.5 +14.4 77 +20 +20 1012.5 966.2 +14.4 +22.7 0.0
07 12.06 С 1 н/о н/о +20.9 +14.5 67 +25 +25 комфорт 1011.7 965.8
08 12.06 В 1 н/о н/о +23.9 +16.0 61 +27 +27 жарко 1011.1 965.7
09 12.06 ЮЗ 2 н/о н/о +26.7 +16.4 53 +30 +30 душно 1009.8 964.9
10 12.06 Ю 3 н/о н/о +29.1 +14.2 40 +31 +31 жарко 1009.1 964.5
11 12.06 Ю 4 н/о н/о +29.7 +15.2 41 +32 +32 душно 1008.7 964.2
12 12.06 ЮВ 3 н/о н/о +30.3 +15.6 41 +33 +33 душно 1008.4 964.0
13 12.06 ЮВ 4 н/о н/о +30.7 +16.6 43 +34 +34 очень
душно
1008.0 963.7
14 12.06 Ю 2 н/о н/о +29.1 +16.9 48 +33 +33 очень
душно
1008.0 963.5
15 12.06 Ю 1 н/о н/о +29.1 +16.8 47 +33 +33 очень
душно
1008.0 963.5
16 12.06 ЮВ 3 н/о н/о +29.6 +17.1 47 +33 +33 душно 1007.7 963.3
17 12.06 Ю 2 н/о н/о +28.4 +17.4 51 +32 +32 душно 1007.9 963.3
18 12.06 Ю 2 н/о н/о +27.2 +17.9 57 +32 +32 очень
душно
1008.3 963.5 +17.9 +31.0
19 12.06 Ю 2 н/о н/о +25.5 +18.4 65 +30 +30 душно 1009.2 964.2
20 12.06 ЮЗ 1 н/о н/о +22.5 +16.4 68 +27 +27 душно 1010.8 965.2
21 12.06 ЮВ 1 н/о н/о +21.1 +16.6 75 +25 +25 комфорт 1011.1 965.3
22 12.06 СВ 1 н/о н/о +19.5 +16.4 82 +23 +23 комфорт 1011.6 965.5
23 12.06 штиль 0 н/о н/о +18.8 +16.4 86 +20 +20 1011.7 965.5
00 13.06 штиль 0 н/о н/о +17.5 +15.8 90 +17 +17 1011.8 965.4
01 13.06 штиль 0 н/о н/о +16.9 +15.6 92 +17 +17 1011.7 965.2
02 13.06 штиль 0 н/о н/о +16.4 +15.4 94 +16 +16 1011.8 965.2
03 13.06 штиль 0 н/о н/о +15.7 +14.8 94 +15 +15 1012.2 965.5
04 13.06 штиль 0 н/о н/о +15.6 +14.7 94 +15 +15 1012.8 966.0
05 13.06 ЮВ 1 н/о н/о +16.9 +15.8 93 +18 +18 1013.2 966.6
06 13.06 штиль 0 н/о н/о +18.9 +16.0 83 +20 +20 1012.9 966.7 +15.4 +27.3
07 13.06 В 1 н/о н/о +22.7 +16.5 68 +27 +27 душно 1012.3 966.7
08 13.06 ЮВ 1 н/о н/о +25.6 +16.6 58 +29 +29 душно 1011.7 966.5
09 13.06 ЮВ 2 н/о н/о +28.0 +15.4 46 +31 +31 душно 1011.2 966.4
10 13.06 ЮВ 2 н/о н/о +29.2 +15.5 43 +32 +32 душно 1010.9 966.3
11 13.06 Ю 1 н/о н/о +29.2 +13.6 38 +31 +31 жарко 1010.7 966.0
12 13.06 ЮЗ 2 н/о н/о +29.7 +12.0 34 +31 +31 жарко 1010.4 965.8
13 13.06 ЮЗ 3 н/о н/о +31.2 +13.8 35 +33 +33 жарко 1010.0 965.7
14 13.06 ЮЗ 3 н/о н/о +31.1 +12.2 31 +32 +32 жарко 1010.1 965.7
15 13.06 ЮЗ 3 н/о н/о +31.0 +10.7 29 +31 +31 жарко 1010.1 965.7
16 13.06 ЮЗ 2 н/о н/о +30.6 +10.7 29 +31 +31 жарко 1010.2 965.7
17 13.06 ЮЗ 2 н/о н/о +29.3 +9.2 29 +29 +29 жарко 1010.6 965.9
18 13.06 Ю 2 н/о н/о +26.9 +12.7 41 +28 +28 жарко 1011.3 966.3 +18.4 +31.6
19 13.06 ЮЗ 2 н/о н/о +24.4 +12.7 48 +26 +26 жарко 1012.4 967.0
20 13.06 ЮЗ 3 н/о н/о +24.3 +12.1 46 +26 +26 жарко 1013.2 967.7
21 13.06 Ю 2 н/о н/о +20.9 +13.6 63 +24 +24 комфорт 1014.2 968.2
22 13.06 Ю 1 н/о н/о +19.6 +12.6 64 +22 +22 комфорт 1015.2 968.9
23 13.06 Ю 2 н/о н/о +18.3 +12.5 69 +19 +19 1015.7 969.2
00 14.06 ЮЗ 2 н/о н/о +18.6 +10.7 60 +20 +20 1015.8 969.3
01 14.06 СВ 1 н/о н/о +16.1 +12.0 77 +17 +17 1017.0 970.1
02 14.06 С 1 н/о н/о +14.7 +11.3 80 +15 +15 1017.5 970.3
03 14.06 штиль 0 н/о н/о +13.6 +11.0 84 +13 +13 1018.1 970.7
04 14.06 З 1 н/о н/о +13.3 +11.1 87 +13 +13 1018.7 971.2
05 14.06 штиль 0 н/о н/о +14.7 +11.8 83 +14 +14 1019.2 971.9
06 14.06 СВ 1 н/о н/о +17.7 +12.4 71 +19 +19 1019.5 972.7 +13.2 +27.2
07 14.06 СВ 1 н/о н/о +21.5 +11.9 54 +24 +24 комфорт 1019.3 973.1
08 14.06 ЮВ 1 н/о н/о +23.7 +10.8 44 +25 +25 комфорт 1018.6 972.7
09 14.06 В 1 н/о н/о +25.8 +12.9 45 +28 +28 жарко 1018.4 972.9
10 14.06 В 1 н/о н/о +28.0 +13.1 40 +30 +30 жарко 1017.9 972.7
11 14.06 Ю 1 н/о н/о +29.1 +12.3 35 +30 +30 жарко 1017.3 972.3
12 14.06 ЮЗ 1 н/о н/о +30.3 +12.2 33 +31 +31 жарко 1016.3 971.5
13 14.06 Ю 1 н/о н/о +31.7 +6.9 21 +30 +30 жарко 1015.5 970.9
14 14.06 ЮВ 1 н/о н/о +32.7 +7.1 20 +31 +31 жарко 1014.7 970.3
15 14.06 ЮВ 1 н/о н/о +33.3 +11.6 27 +33 +33 жарко 1013.8 969.6
16 14.06 Ю 1 н/о н/о +32.2 +13.4 32 +33 +33 жарко 1013.5 969.1
17 14.06 Ю 1 н/о н/о +30.4 +13.1 35 +32 +32 жарко 1013.6 969.0
18 14.06 Ю 2 н/о н/о +28.2 +13.1 39 +30 +30 жарко 1014.1 969.1 +16.8 +33.8
19 14.06 СВ 1 н/о н/о +24.8 +15.4 56 +28 +28 жарко 1015.0 969.5
20 14.06 С 1 н/о н/о +22.2 +14.9 63 +26 +26 душно 1015.8 969.9
21 14.06 штиль 0 н/о н/о +20.4 +15.2 72 +23 +23 комфорт 1016.3 970.1
22 14.06 З 1 н/о н/о +19.3 +15.0 76 +22 +22 комфорт 1016.6 970.2
23 14.06 штиль 0 н/о н/о +18.6 +15.3 81 +19 +19 1016.6 970.1
00 15.06 штиль 0 н/о н/о +17.5 +14.8 84 +17 +17 1016.4 969.8
01 15.06 СЗ 1 н/о н/о +16.8 +14.5 86 +18 +18 1016.4 969.6
02 15.06 З 1 н/о н/о +16.5 +14.6 89 +17 +17 1016.1 969.3
03 15.06 ЮЗ 1 н/о н/о +16.1 +14.4 90 +17 +17 1015.7 968.9
04 15.06 штиль 0 н/о н/о +15.9 +14.4 91 +16 +16 1015.8 968.9
05 15.06 СВ 1 н/о н/о +16.9 +14.9 88 +18 +18 1015.8 969.1
06 15.06 Ю 1 н/о н/о +18.8 +15.5 81 +21 +21 комфорт 1016.0 969.6 +15.6 +28.5
07 15.06 З 1 н/о н/о +21.5 +15.4 68 +25 +25 комфорт 1015.2 969.2
08 15.06 штиль 0 н/о н/о +23.0 +15.6 63 +27 +27 душно 1014.8 969.1 0.0
09 15.06 Ю 1 н/о н/о +24.6 +14.4 53 +27 +27 жарко 1014.4 968.9 0.0
10 15.06 СВ 1 н/о н/о +25.0 +17.5 63 +29 +29 душно 1014.3 968.9 0.0
11 15.06 штиль 0 н/о н/о +25.4 +17.2 60 +29 +29 душно 1013.5 968.2 0.0
12 15.06 Ю 1 н/о н/о +26.0 +17.8 61 +30 +30 душно 1013.0 967.9 0.0
13 15.06 ЮВ 1 н/о н/о +27.6 +17.8 55 +32 +32 очень
душно
1012.3 967.4
14 15.06 штиль 0 н/о н/о +28.1 +17.9 54 +33 +33 очень
душно
1011.5 966.7
15 15.06 штиль 0 н/о н/о +29.6 +15.9 44 +33 +33 душно 1010.6 966.0
16 15.06 штиль 0 н/о н/о +29.3 +16.4 46 +33 +33 душно 1009.9 965.3
17 15.06 Ю 1 н/о н/о +28.6 +18.5 54 +33 +33 очень
душно
1009.5 964.9
18 15.06 ЮЗ 2 н/о н/о +27.3 +16.0 50 +31 +31 душно 1010.0 965.1 +18.7 +29.9 0.0
19 15.06 ЮВ 2 н/о н/о +25.2 +16.3 58 +29 +29 душно 1010.4 965.2
20 15.06 С 2 н/о н/о +22.2 +16.4 70 +26 +26 душно 1011.7 966.0
21 15.06 штиль 0 н/о н/о +20.1 +16.1 78 +23 +23 комфорт 1012.0 966.0
22 15.06 штиль 0 н/о н/о +18.6 +15.8 84 +19 +19 1012.7 966.4
23 15.06 штиль 0 н/о н/о +17.6 +15.3 86 +18 +18 1013.1 966.6

 

Местоположение метеостанции Санкт-Андре (Австрия): широта 46.77 долгота 14.83 высота над уровнем моря 404 м.

В архиве по умолчанию представлена погода в Санкт-Андре за последнюю неделю. Архивные данные за месяц целиком и за предыдущие месяцы, начиная с января 2011 года, Вы можете получить, выбрав интересующий диапазон дат из раскрывающегося списка и нажав кнопку "Ввод!".


*Определитесь, кто Вы:
робот инопланетянин человек

Внимание! Время в таблицах - всемирное. Для получения местного времени необходимо прибавить поправку, которая равна 1 ч.

Смотрите также архив погоды в соседних городах и на ближайших метеорологических станциях:

Погода в Прайтенеге (Австрия) (19 км)
Погода в Файстриц-об-Блайбурге (Австрия) (23 км)
Погода в Дойчландсберге (Австрия) (31 км)
Погода Айзенкаппель-Феллах (Австрия) (37 км)
Погода в Кёфлаге (Австрия) (38 км)
Погода в Словень-Градеце (Словения) (39 км)
Погода в Клагенфурте (Австрия) (40 км)
Погода в Клагенфурте (Австрия) (42 км)
Погода в Ноймаркте (Австрия) (46 км)
Погода в Цельтвеге (Австрия) (48 км)

Пояснения к столбцам:

Ветер - указаны скорость ветра в м/с - средняя за 10 мин, порывы в срок и между сроками (в фигурных скобках) и направление, откуда дует ветер: С - северный, СВ - северо-восточный, В - восточный, ЮВ - юго-восточный, Ю - южный, ЮЗ - юго-западный, З - западный, СЗ - северо-западный.
Видимость - горизонтальная дальность видимости в метрах или километрах. При видимости от 1 до 10 км при отсутствии осадков обычно наблюдается дымка, при ухудшении видимости до 1 км и менее - туман. В сухую погоду видимость может ухудшаться дымом, пылью или мглою.
Явления - указаны атмосферные явления, наблюдавшиеся в срок или в последний час перед сроком; фигурными скобками обозначены явления, наблюдавшиеся между сроками (за 1-3 часа до срока); квадратными скобками обозначены град или гололедные отложения с указанием их диаметра в мм.
Облачность - указаны через наклонную черту общая и нижняя облачность в баллах и высота нижней границы облаков в метрах; квадратными скобками обозначены формы облаков: Ci - перистые, Cs - перисто-слоистые, Cc - перисто-кучевые, Ac - высококучевые, As - высокослоистые, Sc - слоисто-кучевые, Ns - слоисто-дождевые, Cu - кучевые, Cb - кучево-дождевые. Подробнее классификацию облаков см. в Атласе облаков (PDF).
T - Температура воздуха - температура, измеренная на высоте 2 м над землей.
Td - Температура точки росы - температура, при понижении до которой содержащийся в воздухе водяной пар достигнет насыщения.
f - Относительная влажность воздуха - влажноcть воздуха, измеренная на высоте 2 м над землей.
Te - Эффективная температура - температура, которую ощущает одетый по сезону человек в тени. Характеристика душности погоды. При расчете учитывается влияние влажности воздуха и скорости ветра на теплоощущения человека.
Tes - Эффективная температура на солнце - температура, которую ощущает человек, с поправкой на солнечный нагрев. Характеристика знойности погоды. Зависит от высоты солнца над горизонтом, облачности и скорости ветра. Ночью, в пасмурную погоду, а также при ветре 12 м/с и более поправка равна нулю.
P - Атмосферное давление - приведенное к уровню моря атмосферное давление.
Po - Атмосферное давление - измеренное на уровне метеостанции атмосферное давление.
Tmin - Минимальная температура - минимум температуры воздуха на высоте 2 м над землей.
Tmax - Максимальная температура - максимум температуры воздуха на высоте 2 м над землей.
R - Количество осадков - Количество выпавших осадков за период времени, мм. При наведении курсора мыши на число - период времени, за который выпало указанное количество осадков.
R24 - Количество осадков - Количество выпавших осадков за 24 часа, мм.
S - Снежный покров - Высота снежного покрова, см. При наведении курсора мыши на число - состояние снежного покрова и степень покрытия местности в баллах.